TimeCDT,TemperatureF,Dew PointF,Humidity,Sea Level PressureIn,VisibilityMPH,Wind Direction,Wind SpeedMPH,Gust SpeedMPH,PrecipitationIn,Events,Conditions,WindDirDegrees,DateUTC
12:15 AM,68.0,62.6,83,30.13,10.0,Calm,Calm,-,N/A,,Scattered Clouds,0,2012-10-12 05:15:00
12:35 AM,68.0,62.6,83,30.13,10.0,Calm,Calm,-,N/A,,Mostly Cloudy,0,2012-10-12 05:35:00
1:15 AM,68.0,62.6,83,30.13,10.0,Calm,Calm,-,N/A,Thunderstorm,Overcast,0,2012-10-12 06:15:00
1:35 AM,68.0,62.6,83,30.12,10.0,Calm,Calm,-,N/A,,Overcast,0,2012-10-12 06:35:00
1:55 AM,68.0,62.6,83,30.12,10.0,North,4.6,-,N/A,,Overcast,360,2012-10-12 06:55:00
2:15 AM,64.4,57.2,77,30.12,10.0,NNW,15.0,-,0.02,Rain-Thunderstorm,Thunderstorms and Rain,330,2012-10-12 07:15:00
2:35 AM,57.2,53.6,88,30.11,0.8,NNW,23.0,28.8,0.81,Rain-Thunderstorm,Heavy Thunderstorms and Rain,340,2012-10-12 07:35:00
2:55 AM,62.6,60.8,94,30.16,2.0,NNE,10.4,-,1.34,Rain-Thunderstorm,Heavy Thunderstorms and Rain,30,2012-10-12 07:55:00
3:15 AM,62.6,59.0,88,30.18,10.0,ENE,9.2,-,N/A,Thunderstorm,Thunderstorm,60,2012-10-12 08:15:00
3:35 AM,64.4,60.8,88,30.16,10.0,East,3.5,-,N/A,Thunderstorm,Thunderstorm,100,2012-10-12 08:35:00
3:55 AM,60.8,57.2,88,30.12,10.0,North,5.8,-,N/A,Thunderstorm,Mostly Cloudy,10,2012-10-12 08:55:00
4:15 AM,55.4,51.8,88,30.12,10.0,North,8.1,-,N/A,Thunderstorm,Scattered Clouds,10,2012-10-12 09:15:00
4:35 AM,53.6,50.0,88,30.13,10.0,North,5.8,-,N/A,,Scattered Clouds,350,2012-10-12 09:35:00
4:55 AM,53.6,50.0,88,30.14,10.0,NW,5.8,-,N/A,,Scattered Clouds,320,2012-10-12 09:55:00
5:15 AM,53.6,50.0,88,30.15,10.0,NW,4.6,-,N/A,,Clear,320,2012-10-12 10:15:00
5:35 AM,53.6,46.4,77,30.15,10.0,NNW,5.8,-,N/A,,Scattered Clouds,330,2012-10-12 10:35:00
5:55 AM,51.8,46.4,82,30.16,10.0,NNW,8.1,-,N/A,,Mostly Cloudy,330,2012-10-12 10:55:00
6:15 AM,51.8,44.6,76,30.17,10.0,NNW,6.9,-,N/A,,Overcast,330,2012-10-12 11:15:00
6:35 AM,51.8,44.6,76,30.18,10.0,NNW,6.9,-,N/A,,Overcast,330,2012-10-12 11:35:00
6:55 AM,51.8,44.6,76,30.19,10.0,NW,6.9,-,N/A,,Overcast,310,2012-10-12 11:55:00
7:35 AM,51.8,42.8,71,30.20,10.0,NW,8.1,-,N/A,,Overcast,320,2012-10-12 12:35:00
7:55 AM,51.8,41.0,67,30.21,10.0,NNW,8.1,-,N/A,,Overcast,330,2012-10-12 12:55:00
8:15 AM,51.8,42.8,71,30.23,10.0,NW,6.9,-,N/A,Thunderstorm,Overcast,320,2012-10-12 13:15:00
8:35 AM,51.8,42.8,71,30.23,10.0,NNW,6.9,-,N/A,,Overcast,330,2012-10-12 13:35:00
8:55 AM,51.8,41.0,67,30.23,10.0,NNW,6.9,-,N/A,,Overcast,330,2012-10-12 13:55:00
9:15 AM,51.8,41.0,67,30.23,10.0,NNW,5.8,-,N/A,,Overcast,340,2012-10-12 14:15:00
9:55 AM,51.8,41.0,67,30.23,10.0,NW,6.9,-,N/A,,Overcast,320,2012-10-12 14:55:00
10:15 AM,53.6,41.0,62,30.24,10.0,NNW,6.9,-,N/A,,Overcast,340,2012-10-12 15:15:00
10:35 AM,53.6,41.0,62,30.25,10.0,NNW,5.8,-,N/A,,Overcast,330,2012-10-12 15:35:00
10:55 AM,53.6,41.0,62,30.25,10.0,NW,6.9,-,N/A,,Overcast,310,2012-10-12 15:55:00
11:15 AM,53.6,41.0,62,30.25,10.0,NW,5.8,-,N/A,,Overcast,320,2012-10-12 16:15:00
11:35 AM,53.6,41.0,62,30.25,10.0,NW,6.9,-,N/A,,Overcast,320,2012-10-12 16:35:00
11:55 AM,53.6,42.8,67,30.24,10.0,North,4.6,-,N/A,Thunderstorm,Overcast,350,2012-10-12 16:55:00
12:15 PM,53.6,42.8,67,30.24,10.0,NNW,5.8,-,N/A,,Overcast,340,2012-10-12 17:15:00
12:55 PM,53.6,42.8,67,30.23,10.0,NNW,8.1,-,N/A,,Overcast,330,2012-10-12 17:55:00
1:35 PM,55.4,42.8,63,30.18,10.0,NNE,8.1,-,N/A,,Overcast,30,2012-10-12 18:35:00
1:55 PM,57.2,44.6,63,30.19,10.0,Calm,Calm,-,N/A,,Overcast,0,2012-10-12 18:55:00
2:15 PM,55.4,44.6,67,30.17,10.0,Calm,Calm,-,N/A,,Overcast,0,2012-10-12 19:15:00
2:35 PM,57.2,44.6,63,30.15,10.0,NNW,3.5,-,N/A,,Overcast,330,2012-10-12 19:35:00
3:15 PM,57.2,46.4,67,30.16,10.0,Calm,Calm,-,N/A,,Overcast,0,2012-10-12 20:15:00
3:35 PM,59.0,46.4,63,30.17,10.0,Calm,Calm,-,N/A,,Overcast,0,2012-10-12 20:35:00
3:55 PM,57.2,46.4,67,30.18,10.0,WSW,3.5,-,N/A,,Overcast,250,2012-10-12 20:55:00
4:15 PM,57.2,46.4,67,30.14,10.0,ENE,4.6,-,N/A,Rain,Light Rain,70,2012-10-12 21:15:00
4:35 PM,59.0,48.2,67,30.11,10.0,East,8.1,-,N/A,Rain,Light Rain,100,2012-10-12 21:35:00
4:55 PM,59.0,50.0,72,30.11,10.0,ENE,5.8,-,N/A,,Overcast,70,2012-10-12 21:55:00
5:15 PM,59.0,50.0,72,30.11,10.0,ESE,4.6,-,N/A,,Mostly Cloudy,110,2012-10-12 22:15:00
5:55 PM,60.8,50.0,68,30.10,10.0,SE,4.6,-,N/A,,Overcast,140,2012-10-12 22:55:00
6:15 PM,60.8,50.0,68,30.10,10.0,SE,3.5,-,N/A,,Overcast,140,2012-10-12 23:15:00
6:35 PM,60.8,51.8,72,30.08,10.0,East,5.8,-,N/A,,Overcast,100,2012-10-12 23:35:00
6:55 PM,59.0,51.8,77,30.08,10.0,ESE,8.1,-,N/A,,Overcast,120,2012-10-12 23:55:00
7:15 PM,59.0,53.6,82,30.07,7.0,ESE,8.1,-,N/A,,Overcast,120,2012-10-13 00:15:00
7:35 PM,59.0,53.6,82,30.07,10.0,ESE,8.1,-,N/A,,Overcast,110,2012-10-13 00:35:00
7:55 PM,59.0,55.4,88,30.08,7.0,Calm,Calm,-,N/A,,Overcast,0,2012-10-13 00:55:00
8:15 PM,59.0,55.4,88,30.08,5.0,ESE,3.5,-,N/A,Rain,Light Rain,110,2012-10-13 01:15:00
8:35 PM,59.0,53.6,82,30.09,7.0,Calm,Calm,-,N/A,,Overcast,0,2012-10-13 01:35:00
9:15 PM,59.0,55.4,88,30.08,5.0,ESE,3.5,-,N/A,,Overcast,120,2012-10-13 02:15:00
9:35 PM,59.0,55.4,88,30.06,5.0,East,6.9,-,N/A,,Overcast,100,2012-10-13 02:35:00
9:55 PM,59.0,55.4,88,30.08,7.0,SE,4.6,-,N/A,Rain,Rain,140,2012-10-13 02:55:00
10:15 PM,59.0,55.4,88,30.06,7.0,SE,10.4,-,N/A,Rain,Light Rain,130,2012-10-13 03:15:00
10:35 PM,59.0,55.4,88,30.04,5.0,ESE,6.9,-,0.01,,Overcast,120,2012-10-13 03:35:00
11:15 PM,60.8,59.0,94,30.02,4.0,SE,9.2,-,N/A,,Overcast,130,2012-10-13 04:15:00
11:35 PM,60.8,59.0,94,30.02,4.0,ESE,9.2,-,N/A,,Overcast,120,2012-10-13 04:35:00
11:55 PM,62.6,60.8,94,29.99,5.0,SE,9.2,-,N/A,,Scattered Clouds,130,2012-10-13 04:55:00